Theta_e
314 315 315 317 323 324 325 329 329 327 326 323 324 323 322 326 325 323 321 318 319 320 321 321 323 323 324 323 322 323 324 326 326 328 328 324 323 321 322 326 327 324 321 317 314 313 314 314 314 314 314 314 315 314 314 313 313 313 314 315 317 319 321 322 324 326 328 328 329 330 330 329 330 331 332 332 333 332 332 331 331 331 331 331 331 332 333 333 333 333 333 334 334 334 334 334 333
315 316 318 321 324 327 330 330 327 327 324 321 323 324 324 324 323 323 321 319 320 320 320 320 321 322 323 323 322 322 323 324 323 325 323 319 322 321 319 322 322 321 321 318 315 314 314 314 314 314 314 314 314 314 314 314 314 314 313 314 314 316 317 319 320 321 323 324 325 326 328 328 329 329 330 330 331 331 330 331 331 331 330 329 329 329 330 330 331 332 332 333 333 333 333 334 334
317 319 324 325 326 329 331 329 326 324 322 321 322 325 325 322 321 323 322 320 320 320 320 320 320 321 321 322 321 321 323 323 322 321 320 319 321 320 318 318 317 318 319 316 314 314 314 314 314 314 313 313 313 313 313 313 314 314 314 314 314 314 314 315 315 316 316 317 318 319 320 322 324 325 326 328 329 330 330 331 331 331 331 330 329 328 329 328 329 329 330 331 332 332 332 333 333
319 321 328 330 330 329 329 330 328 324 322 321 320 324 325 323 323 322 322 321 320 319 319 319 319 320 320 321 321 320 323 322 322 321 320 320 320 319 318 317 315 315 316 314 314 314 313 313 313 312 312 312 311 312 312 312 312 312 312 312 312 312 312 312 312 312 313 313 314 314 315 316 317 318 319 321 323 325 326 326 327 328 328 328 328 328 329 329 329 329 328 328 329 329 330 332 332
322 323 328 331 332 330 328 330 329 327 324 322 321 323 323 323 323 321 321 320 319 319 319 319 319 320 319 320 321 321 323 322 322 320 319 320 319 319 318 316 314 314 314 314 314 314 313 313 313 312 311 311 311 311 311 311 311 311 311 311 311 310 311 311 311 311 311 312 312 312 313 313 313 314 314 315 316 317 317 317 318 319 318 318 319 320 321 323 324 326 328 328 329 329 329 330 330
323 323 326 328 330 329 328 327 326 326 325 323 322 323 322 321 322 321 320 319 319 319 318 319 319 320 319 319 320 321 322 322 322 319 319 318 319 319 318 315 313 314 314 314 314 314 313 313 312 311 311 310 310 310 310 310 310 310 310 310 310 309 309 309 309 309 309 309 309 309 310 310 310 310 311 311 312 312 312 312 313 313 312 312 312 312 313 313 315 316 320 323 326 328 329 329 329
322 324 324 325 327 326 327 326 323 323 323 323 323 323 322 321 322 320 319 319 318 318 318 319 319 319 319 319 319 319 320 320 320 319 317 317 318 319 318 316 314 314 313 314 314 313 313 312 312 311 310 310 310 310 310 309 309 309 309 309 309 308 308 308 307 307 306 306 306 306 306 306 306 306 307 307 307 308 308 309 309 309 310 310 310 310 310 310 311 311 312 313 316 318 321 324 325
322 327 325 326 328 325 325 324 322 323 323 322 322 323 322 321 321 320 319 319 318 317 318 318 319 318 319 320 319 319 318 318 318 318 317 316 316 318 319 317 314 314 314 314 314 314 313 312 311 310 310 310 310 309 309 309 309 308 308 308 307 307 306 305 305 305 304 304 304 304 304 304 304 304 305 305 305 305 305 305 305 306 306 306 307 307 308 308 308 308 309 309 309 310 311 313 314
323 327 325 325 327 326 326 325 323 324 324 323 321 322 321 321 321 321 319 319 318 318 317 318 318 317 319 319 319 319 318 318 317 316 316 316 316 317 318 317 315 314 314 314 314 314 313 312 311 310 310 310 309 309 308 308 308 308 307 306 305 305 304 304 303 303 303 303 304 304 304 304 304 304 304 304 304 304 304 304 304 305 305 305 305 305 305 305 305 305 305 306 306 307 307 307 308
323 324 324 325 326 325 325 324 325 325 325 323 321 320 320 321 320 320 319 319 319 318 318 318 318 317 318 318 318 319 318 318 317 316 315 315 315 316 318 318 315 314 314 314 314 313 312 312 311 310 310 310 309 308 308 307 307 307 306 305 304 303 303 303 303 303 303 303 303 303 303 303 303 303 303 304 304 304 304 304 304 304 304 304 304 304 304 303 303 303 303 303 303 304 304 304 305
324 324 323 324 325 324 323 323 325 326 324 322 321 320 319 320 320 320 319 319 319 319 319 318 318 317 317 318 318 318 318 318 317 316 315 315 315 315 317 317 316 314 314 314 313 313 312 312 311 311 310 309 309 308 307 307 307 306 305 304 303 302 303 303 303 303 303 303 303 302 303 303 303 303 303 303 303 303 303 303 303 303 303 303 303 303 303 303 303 303 303 303 303 303 303 303 303
325 326 325 324 324 323 324 324 325 326 325 323 321 319 319 320 319 319 319 320 319 319 318 318 318 318 317 317 318 318 318 318 317 316 315 314 314 315 315 316 316 314 314 314 313 313 311 311 311 310 310 309 308 308 307 307 307 306 305 304 302 302 302 302 302 302 302 302 302 302 302 302 302 302 303 303 303 303 303 303 303 303 303 303 303 303 303 302 303 303 303 303 303 303 303 303 303
323 325 326 326 326 325 326 326 325 326 326 324 321 319 319 319 319 319 319 319 319 319 318 318 318 317 318 318 318 318 318 318 317 317 316 314 314 314 315 315 315 315 314 314 313 312 311 311 311 310 310 309 309 308 308 307 307 307 306 304 302 302 302 302 302 303 303 303 302 302 302 302 302 302 302 302 302 302 302 302 302 302 302 302 302 302 302 302 302 302 302 302 302 302 303 303 303
322 323 325 327 327 325 326 325 325 325 324 323 320 318 318 318 319 319 319 319 319 319 319 319 317 317 317 317 318 318 317 317 317 317 315 314 314 314 314 314 314 314 314 313 313 312 311 311 311 310 310 309 309 308 308 308 307 307 307 306 303 302 303 303 303 304 304 304 303 303 303 302 302 302 301 301 301 301 301 301 301 301 301 301 301 301 301 301 301 301 301 301 302 302 302 302 302
322 322 324 325 324 323 324 325 325 324 323 321 319 318 318 318 319 318 319 319 319 318 318 318 317 317 317 317 318 317 317 317 317 316 315 314 314 314 314 314 314 314 313 312 311 311 311 311 311 310 310 309 309 308 308 308 308 308 307 306 304 303 303 304 304 304 304 304 304 304 303 303 302 302 301 301 301 301 301 301 301 301 301 301 301 301 301 301 301 301 301 301 301 301 301 301 301
321 322 325 324 323 322 324 326 325 324 322 320 318 317 318 318 318 318 318 318 318 318 317 318 317 317 317 317 318 318 317 317 317 316 315 314 314 314 314 314 314 313 312 311 311 310 311 311 310 310 309 309 309 308 308 308 308 307 307 306 304 303 303 304 304 304 304 304 304 304 304 303 303 302 302 301 301 301 301 301 301 301 301 301 301 301 301 301 301 301 301 301 301 301 301 301 301
320 322 325 324 323 323 324 328 325 324 323 319 317 317 317 318 317 317 317 317 317 317 317 317 317 317 317 316 316 316 317 317 316 315 315 314 314 314 313 314 314 313 312 311 311 310 310 311 310 310 309 309 309 308 308 308 308 307 307 305 304 303 303 304 304 304 304 304 303 303 303 304 303 302 302 301 301 301 301 301 301 301 301 301 301 301 301 301 301 301 301 301 300 300 300 300 301
322 324 324 323 324 324 325 326 323 323 323 319 316 317 317 317 317 316 316 316 316 316 316 316 316 316 316 316 315 315 315 315 315 315 314 314 313 313 313 314 313 313 313 312 311 310 311 311 310 310 309 309 309 308 308 307 307 307 307 305 303 303 303 303 303 303 303 303 303 303 303 303 303 302 302 301 301 301 301 300 300 300 301 301 301 301 301 301 301 301 300 300 300 300 300 300 301
323 325 324 323 325 324 323 322 320 320 320 319 318 317 317 318 317 315 316 315 315 315 315 316 316 316 316 315 315 314 315 315 315 314 314 314 313 313 313 313 313 313 313 312 311 311 311 311 311 310 310 309 309 308 307 307 307 307 306 304 302 302 303 303 303 303 303 303 303 303 303 304 303 303 302 302 301 301 301 301 301 301 302 302 302 302 303 302 302 302 301 300 300 300 300 300 300
321 322 323 324 324 323 322 321 320 319 319 318 318 318 317 317 317 315 315 316 316 315 315 315 315 316 315 315 315 314 314 314 314 314 314 313 313 313 313 313 313 313 313 313 312 311 311 311 310 310 310 309 308 307 307 307 306 306 306 303 302 302 302 302 303 303 303 303 302 302 303 304 304 304 303 302 302 301 301 302 302 303 303 303 304 304 304 303 303 302 301 301 300 300 300 300 300
321 321 322 323 322 322 322 320 319 318 318 317 318 318 317 317 317 316 315 316 316 316 316 316 316 316 316 315 315 314 314 314 314 314 314 313 313 313 312 313 312 312 313 313 312 312 311 311 310 310 310 308 308 307 306 306 306 306 305 303 302 302 302 302 302 302 303 303 302 302 303 304 304 304 303 303 302 302 302 303 303 303 303 304 304 304 304 303 303 302 301 300 299 299 299 299 299
322 321 322 321 320 321 320 319 318 318 317 316 316 317 317 317 317 316 315 316 316 317 317 317 317 317 316 316 316 315 315 314 314 314 314 313 313 313 312 312 312 312 312 312 312 312 312 311 310 310 310 309 307 307 306 306 306 306 305 302 301 301 302 302 302 302 303 302 302 302 303 303 303 303 303 303 303 303 303 303 303 303 303 303 303 304 303 303 302 302 300 299 299 298 298 298 298
321 321 320 320 320 320 320 318 317 317 316 315 315 316 317 317 316 316 316 315 316 317 318 318 317 318 317 317 316 316 315 315 315 314 314 314 314 313 312 312 312 312 312 312 312 312 312 311 311 310 310 308 307 307 306 306 305 306 305 302 301 301 301 301 302 302 302 302 302 302 302 303 303 303 303 303 303 303 303 303 303 303 303 303 303 303 303 303 302 301 300 299 298 298 297 298 298
319 319 319 319 319 319 319 318 317 316 315 315 316 316 315 316 316 316 316 316 316 316 317 317 317 317 317 317 316 316 315 315 315 315 315 314 314 313 313 312 312 311 311 311 311 311 311 311 311 310 310 308 307 307 306 305 305 305 306 303 301 301 301 301 301 302 302 302 301 302 302 302 302 302 302 302 302 302 302 302 302 302 303 303 303 303 302 302 301 300 299 298 297 297 297 297 297
319 319 319 319 319 319 318 318 317 316 315 315 315 315 314 315 316 315 316 316 316 316 317 316 316 317 316 316 316 315 315 315 315 314 314 314 313 312 312 311 311 310 310 310 310 311 311 311 311 311 310 308 307 306 306 305 304 305 306 304 302 301 301 301 301 302 302 302 301 301 302 302 302 302 302 302 302 302 302 302 302 302 302 302 302 302 301 301 300 299 298 297 297 296 296 296 296
318 318 318 318 318 318 318 317 317 316 315 315 315 314 314 315 315 315 316 316 316 316 316 317 316 316 316 315 315 315 315 314 314 314 314 313 313 312 312 311 310 310 310 310 310 310 311 310 311 311 310 309 307 306 306 305 305 305 305 305 304 302 301 301 301 301 302 301 301 301 301 301 301 301 301 301 302 302 302 302 302 302 302 302 301 301 300 300 299 298 297 297 296 296 296 296 296
317 317 316 316 316 316 317 317 317 316 315 315 315 314 314 315 315 315 315 316 316 316 316 316 316 316 315 315 314 314 314 315 315 314 313 313 312 312 312 311 311 310 309 309 310 310 310 310 310 310 310 309 308 306 305 305 305 305 305 305 304 303 302 301 300 301 301 301 301 301 301 301 301 301 301 301 301 301 301 301 301 301 301 301 301 300 300 299 298 298 297 296 296 295 296 295 295
316 316 315 315 315 316 316 316 316 316 316 315 315 314 314 315 315 315 315 316 316 317 317 316 316 316 316 315 315 314 314 315 315 314 313 313 314 313 313 313 312 311 310 310 310 310 310 310 310 310 309 309 308 306 305 305 305 305 305 305 304 303 302 300 300 301 301 301 301 301 301 301 301 301 301 301 301 301 301 301 301 301 301 301 300 300 299 298 298 297 296 295 295 295 295 295 295
315 315 315 315 315 316 316 316 316 316 316 315 315 314 314 314 314 315 315 316 316 316 316 316 316 316 316 315 315 314 314 315 314 314 314 315 315 315 314 314 313 311 310 310 310 309 310 310 310 309 309 308 308 307 305 304 305 305 305 305 304 303 301 300 300 300 301 301 300 300 300 301 301 301 301 301 301 301 301 301 300 300 301 300 300 299 298 298 297 297 296 296 295 295 295 295 295
315 315 315 315 316 316 317 317 317 316 315 315 314 315 315 315 315 315 316 316 315 316 315 316 316 316 316 316 315 315 314 314 314 315 316 316 316 315 315 314 313 312 311 310 309 310 309 309 309 308 308 308 308 307 306 304 304 304 304 304 304 302 300 300 300 300 300 300 300 300 300 300 300 300 300 300 300 300 300 300 300 300 300 300 300 299 298 297 297 297 296 296 295 295 295 295 295
315 316 316 317 317 317 318 317 317 316 314 314 314 314 315 315 316 316 317 317 316 315 315 315 316 316 316 316 315 315 314 314 314 315 315 315 316 315 315 314 313 312 311 310 310 310 309 309 309 308 308 308 308 307 306 305 304 304 304 304 303 301 299 299 299 300 300 300 300 300 300 300 300 300 300 300 300 300 300 300 300 300 300 300 299 298 298 297 297 296 295 295 295 294 294 294 294
315 317 318 320 318 317 318 317 317 316 314 313 314 315 314 315 316 316 317 317 316 315 315 315 315 315 315 315 315 314 314 314 314 314 314 314 315 315 314 314 313 312 311 311 310 309 309 309 308 308 308 308 307 307 306 305 304 303 303 303 302 300 299 299 299 299 299 299 299 299 299 300 300 300 300 300 300 299 299 299 299 299 300 300 299 298 297 297 296 296 295 294 294 294 294 294 294
318 318 318 320 319 318 319 317 315 315 314 313 314 316 316 315 316 316 317 317 316 315 315 315 315 315 315 315 315 315 314 314 314 313 313 313 314 314 314 313 313 313 312 311 310 309 309 308 308 308 307 307 306 306 306 305 304 303 302 302 301 299 298 298 299 299 299 299 299 299 299 299 299 300 299 299 299 299 299 299 299 299 299 299 299 298 297 296 296 295 294 293 293 293 293 293 293
320 320 318 320 320 319 319 318 315 315 315 314 314 314 314 315 316 316 316 317 316 315 315 316 316 315 315 315 315 315 315 314 314 313 313 313 313 313 313 313 312 312 311 310 309 309 309 308 308 307 307 307 305 305 305 304 303 302 301 301 300 299 298 298 298 299 299 299 299 299 299 299 299 299 299 299 299 299 299 299 299 299 299 299 298 297 297 296 295 294 294 293 292 292 292 293 293
320 320 318 319 320 318 319 319 316 315 316 315 314 314 313 314 315 315 315 316 316 315 315 316 316 315 315 315 315 315 315 315 314 314 313 312 313 313 312 312 312 311 310 309 308 308 307 307 307 307 306 306 305 304 304 304 303 301 301 301 300 299 298 298 298 298 298 298 299 299 298 298 299 299 298 298 298 298 298 298 298 298 298 298 298 297 296 295 294 293 292 292 292 292 292 292 292
318 319 318 319 319 319 318 318 317 315 316 315 314 314 314 314 315 315 315 316 315 315 315 315 315 315 315 315 315 315 315 315 315 314 314 312 312 312 312 311 310 310 309 308 307 307 306 306 306 306 306 305 305 304 304 303 302 301 301 300 300 299 298 298 298 298 298 298 298 298 298 298 298 298 298 298 298 298 298 298 298 298 298 298 298 297 296 294 293 292 291 291 291 292 292 292 292
318 319 320 320 319 317 317 318 318 315 315 316 315 315 315 315 316 315 315 315 315 314 314 315 315 315 315 315 315 315 315 315 315 314 314 313 312 312 311 311 310 308 308 307 306 306 306 306 306 306 305 305 305 305 304 304 303 302 301 301 300 299 298 298 298 298 298 298 298 298 298 298 298 298 298 298 298 298 298 298 298 298 298 298 297 297 296 294 292 291 291 291 291 292 292 292 291
318 319 320 319 319 318 317 318 318 315 315 316 315 315 315 315 315 315 315 315 314 314 313 314 314 315 315 315 315 315 315 315 315 315 313 312 312 311 310 310 309 308 307 306 306 306 306 306 306 306 305 306 306 306 305 304 304 303 302 301 300 299 298 298 298 298 298 298 298 298 297 297 297 297 297 297 297 297 297 297 297 297 297 297 297 296 295 293 292 291 291 291 291 291 291 291 291
320 320 320 319 318 317 317 318 317 313 314 316 315 315 314 314 315 315 315 314 314 315 315 315 315 315 315 315 315 315 316 316 315 314 313 312 312 310 310 309 308 307 307 306 306 306 306 306 306 306 306 306 306 306 305 305 304 303 301 301 299 298 298 297 297 297 297 297 298 297 297 297 297 297 297 297 297 297 297 297 297 297 297 297 297 296 294 293 291 291 290 291 291 291 291 291 290
319 318 318 317 317 318 317 317 316 312 313 315 315 314 314 314 314 314 314 314 314 315 315 315 315 315 315 315 315 315 316 316 315 314 313 312 312 310 309 308 308 307 306 306 306 305 305 306 306 306 306 307 306 306 305 304 303 301 300 299 298 297 297 297 297 297 297 297 297 297 296 296 297 297 297 297 297 297 297 297 297 297 297 297 296 295 294 292 291 290 290 290 290 290 290 291 290
319 320 318 317 317 318 318 318 318 316 314 314 315 314 314 315 315 315 315 314 314 315 315 315 315 315 315 316 316 316 317 316 315 313 313 313 312 311 309 308 307 307 306 306 306 306 306 307 307 307 307 307 306 306 304 303 302 300 299 297 296 296 296 296 296 297 297 297 297 297 296 296 296 296 296 296 296 296 296 296 296 296 297 296 295 294 293 292 291 290 290 290 290 290 290 290 291
316 320 320 318 317 318 319 321 321 320 318 317 318 317 316 318 318 317 317 317 316 314 314 315 315 316 315 315 316 316 316 316 315 314 314 314 312 310 309 308 307 307 306 306 306 306 307 307 308 307 307 306 306 305 304 303 302 301 300 298 297 297 297 297 297 298 298 297 297 296 296 296 296 296 296 296 296 296 296 296 296 296 296 296 294 293 292 291 291 290 290 290 290 290 290 290 290
314 321 325 320 318 321 322 322 321 322 321 317 319 319 316 317 317 317 318 319 318 316 316 315 314 315 315 315 315 315 315 315 315 314 314 313 312 310 309 308 308 308 307 307 306 306 306 307 308 308 307 306 305 304 303 303 301 301 300 299 299 299 298 298 298 297 297 297 296 296 296 296 296 296 296 296 296 296 296 296 296 296 296 295 294 292 291 291 290 290 290 290 290 290 289 289 289
317 323 326 321 318 321 322 321 321 322 319 316 319 320 317 315 315 317 317 317 317 316 317 316 314 314 314 315 315 315 316 316 314 314 313 312 312 311 310 311 311 311 309 307 307 307 307 307 307 307 307 306 305 304 303 303 302 301 300 299 299 298 298 298 298 297 296 296 296 296 296 295 295 295 295 296 295 296 296 296 296 296 295 294 293 292 291 290 290 290 290 290 290 290 289 289 289
319 320 320 319 319 319 318 319 320 319 316 317 321 320 318 315 315 317 317 316 317 316 316 316 314 313 314 315 315 314 315 316 315 314 313 312 312 311 311 312 313 311 310 309 309 308 308 307 307 307 307 306 305 304 304 303 302 301 300 299 298 298 297 296 296 296 296 296 296 296 296 295 295 295 295 295 295 295 295 295 295 295 295 294 292 291 291 290 290 290 290 290 290 289 289 289 288
318 318 318 319 319 317 316 317 317 317 316 318 321 320 316 315 317 319 317 316 317 316 315 316 314 313 314 314 315 315 315 316 315 314 313 313 312 312 312 312 312 311 311 310 309 308 308 307 307 307 307 307 306 305 304 303 301 301 300 299 298 297 296 296 295 295 295 295 296 295 295 295 295 295 295 295 295 295 295 295 295 295 294 293 292 291 290 290 290 290 290 290 289 289 289 288 288
315 317 317 318 318 316 315 315 315 317 317 316 319 319 316 316 319 319 318 318 318 316 315 315 314 313 314 314 315 315 315 316 316 314 313 313 312 311 311 312 312 311 311 310 309 308 308 307 307 307 307 306 306 305 304 303 301 301 300 299 298 297 296 296 295 295 295 295 295 295 294 294 294 294 294 294 295 295 295 295 295 294 294 292 291 291 290 290 290 290 290 289 289 289 288 288 288
315 317 315 317 320 318 316 315 316 318 318 318 321 319 316 316 318 317 317 318 318 316 315 316 316 314 313 315 315 315 316 316 316 314 313 312 311 311 311 312 312 311 310 310 309 309 308 308 307 307 307 306 306 305 304 303 302 301 300 299 298 297 296 296 296 296 296 295 295 295 294 294 294 294 294 294 294 294 295 295 294 294 293 292 291 290 290 290 290 289 289 289 289 288 288 288 288
316 317 315 317 319 319 319 319 320 320 318 320 322 320 318 316 316 316 317 317 317 316 315 315 316 315 314 315 316 316 317 317 316 315 313 312 312 312 313 313 312 312 311 311 310 309 308 308 308 307 307 307 306 306 305 304 303 302 300 299 298 297 296 296 296 296 296 295 295 295 294 294 294 294 294 294 294 294 294 294 294 293 292 291 290 290 290 290 289 289 289 289 288 288 288 287 287
314 316 316 320 320 318 320 321 323 322 319 319 319 320 321 316 315 318 317 316 317 316 314 315 316 315 316 316 316 317 318 317 317 316 314 313 313 314 314 313 313 313 312 312 311 310 309 308 308 308 308 307 307 306 305 304 303 302 301 299 298 297 296 296 295 295 295 295 295 294 294 294 293 294 294 294 294 294 294 294 294 293 292 291 290 290 290 289 289 289 289 289 288 288 288 288 287
311 314 316 319 320 318 317 320 320 319 320 319 317 321 322 316 317 321 318 316 315 314 315 315 315 316 316 316 316 318 318 317 316 315 314 313 313 314 314 314 314 314 313 312 312 310 309 308 309 309 309 308 308 307 306 305 304 303 302 300 298 297 296 296 295 295 295 294 294 294 294 293 293 293 293 293 294 294 294 293 293 292 291 290 290 289 289 289 289 289 289 288 288 288 288 288 287
312 314 315 317 319 318 317 319 318 317 320 318 317 321 320 314 315 318 316 316 315 314 315 314 314 316 316 315 316 317 317 316 316 314 314 313 313 313 314 314 314 314 313 313 312 311 310 309 310 310 310 309 308 308 307 306 305 304 302 301 299 297 296 295 295 295 294 294 294 294 293 293 293 293 293 293 293 293 293 293 292 291 290 290 290 289 289 289 289 289 288 288 288 288 287 287 287
315 315 316 317 319 319 318 319 318 317 318 317 315 318 317 313 315 316 315 315 314 314 315 314 314 315 314 315 315 316 316 316 315 315 314 313 313 313 314 314 314 314 314 313 313 312 311 311 310 310 310 309 308 308 307 306 305 304 303 302 300 299 297 296 295 295 294 294 294 293 293 293 292 293 293 293 293 293 293 292 292 291 290 290 289 289 289 289 288 288 288 288 288 287 287 287 287
316 317 317 317 319 319 317 317 319 318 318 317 315 316 315 314 316 317 316 316 315 314 315 315 314 314 313 313 315 315 315 315 315 314 313 313 313 314 314 314 314 314 313 313 313 313 312 311 311 311 310 310 309 308 307 306 306 305 304 302 301 300 298 297 295 294 294 294 293 293 293 292 292 292 292 293 293 293 293 292 291 290 290 289 289 289 289 288 288 288 288 288 287 287 287 287 286
314 315 316 317 319 320 318 316 318 318 316 315 316 315 314 313 314 315 315 317 317 315 314 315 315 314 313 313 315 315 315 315 314 314 313 313 313 313 314 314 314 314 314 313 313 312 312 311 310 310 310 310 309 308 307 306 306 305 304 303 302 300 298 297 295 294 294 293 293 293 292 292 292 292 292 292 292 292 292 291 291 290 289 289 289 289 288 288 288 288 287 287 287 287 286 286 286
311 311 313 314 315 318 319 317 316 316 315 314 315 315 314 314 314 314 315 317 317 315 315 316 315 314 313 313 314 315 315 315 315 314 313 313 313 313 313 314 314 314 313 313 312 312 312 311 310 310 309 308 308 307 306 306 306 305 304 303 301 300 298 297 295 294 294 293 293 292 292 292 292 292 292 292 292 292 292 291 290 290 289 289 289 289 288 288 288 288 287 287 287 286 286 286 286
312 312 313 313 312 314 317 316 316 316 315 314 314 315 314 314 315 316 316 317 317 316 317 317 316 313 313 314 314 315 315 315 314 314 313 313 313 313 312 312 313 314 313 313 312 312 311 310 310 310 309 308 308 307 306 306 306 305 304 303 301 300 298 297 295 294 293 293 293 292 292 291 291 292 292 292 292 291 291 290 290 289 289 289 289 288 288 288 288 287 287 287 286 286 286 285 285
314 313 313 313 313 314 314 315 316 315 315 314 314 315 314 314 316 316 315 316 318 317 317 318 317 314 314 315 315 314 315 314 314 314 313 313 313 313 312 311 312 313 313 313 312 311 310 310 309 309 308 308 308 308 307 307 305 304 304 303 301 299 298 296 295 294 293 293 292 292 291 291 291 291 291 291 291 291 290 290 290 289 289 289 288 288 288 287 287 287 286 286 286 285 285 285 285
Wind_Speed
5 4 3 3 4 4 2 1 2 3 2 4 5 3 2 3 4 2 2 4 1 2 5 4 4 6 4 2 5 5 6 4 1 2 2 0 6 20 20 18 17 14 12 10 12 12 9 7 6 4 2 1 1 1 3 3 4 4 4 4 5 5 6 7 7 7 7 7 7 7 7 8 8 7 8 8 9 9 8 8 8 8 7 7 7 7 7 8 9 9 9 10 11 12 12 13 14
5 5 5 3 5 3 2 2 2 3 3 4 4 1 4 4 3 3 3 3 4 6 7 4 3 3 2 3 5 4 6 7 2 3 3 2 9 19 19 18 16 15 13 10 13 12 8 6 5 3 2 1 1 1 3 3 4 4 5 5 5 5 6 7 7 8 8 9 10 10 11 12 12 12 12 12 13 13 12 11 10 10 10 10 10 9 9 9 9 9 10 11 11 12 13 14 14
4 6 8 2 1 0 5 1 2 3 3 4 1 2 4 3 4 4 4 7 10 10 7 4 2 1 3 3 2 2 3 6 3 3 5 6 10 17 18 17 15 15 14 13 15 10 7 6 5 3 2 1 1 0 1 1 1 2 3 3 4 4 4 5 5 6 7 8 9 10 11 12 13 14 14 14 15 15 15 15 14 12 12 12 12 11 11 11 11 11 11 11 11 12 13 13 14
4 6 9 1 3 3 3 2 3 3 4 4 1 1 3 4 6 7 9 11 10 8 5 4 2 1 2 3 1 1 4 6 1 1 4 8 8 13 17 15 15 14 14 15 14 10 8 7 4 2 1 1 1 1 2 2 3 3 4 4 4 5 4 4 4 5 5 5 6 7 8 9 10 12 13 14 14 15 16 16 15 14 13 12 12 12 12 13 13 13 14 14 14 14 15 14 15
4 4 7 4 2 2 2 2 3 3 5 3 1 1 2 4 8 8 8 9 7 6 5 4 2 0 5 6 3 1 4 5 2 3 4 7 6 11 17 15 15 14 14 16 14 10 9 6 3 2 0 1 2 3 4 4 5 5 5 6 6 6 6 6 6 6 6 6 6 6 6 7 7 8 9 10 11 12 12 13 13 13 13 12 12 12 12 13 13 14 14 15 16 16 16 16 17
5 4 4 2 3 4 2 2 4 5 5 3 2 3 2 4 10 11 9 9 7 6 5 4 2 1 3 6 5 3 5 4 3 4 5 6 6 11 16 17 16 16 16 17 14 10 8 5 3 1 0 2 3 3 4 4 4 5 5 5 5 5 6 6 6 6 7 7 7 7 7 7 7 8 8 9 9 10 10 10 10 11 11 11 12 12 12 12 13 13 13 14 15 16 16 17 18
4 4 1 2 3 2 2 4 5 5 3 3 2 3 2 7 13 13 9 6 4 3 6 5 2 1 1 4 6 9 9 8 9 8 6 4 6 11 16 19 18 17 17 17 13 10 8 5 3 1 0 1 1 2 2 3 3 4 4 4 5 5 5 5 5 6 6 7 7 8 8 8 8 8 9 9 9 10 10 11 11 11 11 11 12 12 13 13 13 13 13 13 14 15 16 17 18
4 2 1 1 2 2 3 4 5 6 2 1 2 3 3 11 14 10 7 5 4 5 8 7 5 2 3 4 4 9 12 14 16 15 13 9 7 11 16 20 19 18 18 17 13 10 8 6 4 2 1 1 1 1 1 2 2 2 3 3 4 4 4 5 5 5 6 6 7 7 7 7 8 8 9 9 9 10 10 11 11 11 11 12 12 12 13 14 14 14 14 14 14 15 15 16 17
3 0 1 1 2 2 4 5 6 7 2 3 4 3 3 10 11 8 6 5 5 7 10 12 9 4 3 6 6 8 11 12 15 15 16 13 10 12 16 20 20 20 19 17 13 10 9 7 5 4 4 4 4 3 2 1 1 1 2 3 3 4 4 4 4 5 5 6 6 7 7 7 7 7 8 8 8 8 9 9 10 10 10 11 11 11 12 13 14 15 15 15 15 16 17 17 18
1 4 2 0 3 3 5 5 5 4 2 3 5 5 4 8 8 7 7 6 7 7 10 13 12 9 4 4 6 9 12 11 12 12 12 13 13 14 17 21 21 19 19 17 14 12 11 9 7 7 7 7 6 5 4 3 1 1 2 3 3 3 3 3 3 3 4 5 6 6 7 7 7 7 7 7 6 6 6 6 6 7 7 8 8 9 10 11 12 13 13 14 14 15 16 17 18
3 6 3 2 3 4 5 4 3 0 4 3 4 6 6 7 7 6 7 6 10 9 9 12 9 13 10 7 7 10 13 12 12 13 11 12 13 15 18 21 21 20 20 18 15 14 13 11 11 11 10 9 7 6 4 3 1 1 2 2 2 2 1 1 1 2 3 4 4 5 6 6 6 6 6 6 5 5 5 4 4 4 5 5 6 6 7 8 9 10 11 11 12 13 14 15 16
3 4 3 2 4 4 5 4 5 2 3 3 4 8 7 7 6 5 7 6 10 11 12 14 6 9 9 7 9 12 15 14 14 14 13 13 14 16 19 21 21 22 21 19 18 17 15 14 13 13 12 10 8 6 5 3 2 2 3 3 3 2 1 0 1 2 3 4 5 5 6 6 6 6 5 5 5 5 5 5 6 6 6 7 7 8 8 8 9 9 10 10 11 11 12 13 14
4 3 1 2 4 4 5 5 5 5 2 2 4 10 8 8 8 7 7 7 9 9 11 15 7 5 6 4 7 12 15 15 16 16 14 12 15 17 19 21 23 23 22 21 20 18 17 15 15 15 13 10 8 7 5 4 3 4 5 5 4 3 2 2 2 3 5 6 7 7 8 7 7 7 6 6 6 6 6 6 7 8 8 9 9 10 10 11 11 11 11 11 11 12 12 12 13
6 6 3 3 4 5 5 5 4 4 3 2 7 10 9 6 8 9 8 6 8 6 6 13 10 3 6 6 6 14 17 16 18 17 14 13 16 18 20 22 23 23 23 22 21 19 19 18 17 17 14 11 9 8 6 5 4 4 5 6 6 6 5 4 5 6 8 9 10 10 10 10 10 9 9 8 8 8 8 8 8 9 9 10 11 11 12 12 13 13 14 14 14 13 13 13 13
7 6 3 3 4 5 5 4 4 2 1 3 6 7 7 6 6 7 9 7 4 4 5 11 13 5 4 6 5 13 17 16 16 14 14 15 17 18 20 22 23 23 23 23 22 21 21 20 19 18 15 13 12 10 8 7 6 5 5 6 6 6 6 5 6 8 9 10 10 11 11 11 11 11 11 10 10 10 10 10 11 11 12 12 13 13 14 14 15 15 15 15 15 15 15 15 15
8 5 2 3 4 5 4 3 1 1 1 3 6 6 4 6 8 8 9 9 4 5 9 12 16 11 6 7 7 11 13 14 13 12 13 15 17 19 21 22 23 23 23 24 23 23 23 22 21 19 17 16 14 12 10 9 8 8 7 7 8 8 7 6 7 7 8 9 9 10 10 10 10 10 10 10 10 11 11 11 12 13 13 14 14 15 15 16 16 16 16 16 16 16 16 15 15
5 2 2 3 5 5 3 3 1 1 2 4 7 8 5 5 8 10 11 12 9 8 12 12 16 18 14 14 14 14 15 15 15 14 15 16 18 20 21 22 23 25 25 26 25 24 24 23 22 20 19 18 16 14 13 12 10 10 9 9 10 10 9 8 8 8 8 8 8 8 9 9 9 10 10 10 10 11 11 12 12 13 13 14 14 15 16 16 16 16 17 17 17 16 16 15 15
4 2 3 4 5 5 2 2 1 1 1 3 8 9 6 4 7 10 9 12 16 14 16 16 16 18 19 20 20 21 21 21 21 20 19 18 20 21 22 23 24 26 27 28 27 27 27 25 24 22 22 20 19 17 15 14 12 12 11 11 12 12 12 11 10 9 9 9 9 8 8 8 8 9 9 10 10 10 11 11 11 12 12 13 14 14 15 15 16 16 16 16 16 16 17 17 17
6 3 3 5 5 4 1 3 3 2 2 1 5 8 7 6 6 9 6 8 14 14 17 19 19 19 21 24 24 25 26 25 25 25 23 22 22 23 23 24 26 27 27 28 29 29 29 28 26 26 24 23 21 19 17 15 14 14 13 13 14 14 14 13 12 11 10 10 9 9 8 8 8 8 9 10 10 10 10 9 9 10 10 11 12 13 14 15 15 16 16 16 16 17 17 17 17
8 6 3 6 4 4 5 4 3 3 4 4 5 6 8 9 7 7 5 8 11 12 15 17 21 25 25 27 27 28 29 28 29 28 27 26 25 25 25 25 26 27 27 27 29 30 30 30 29 28 26 25 23 21 19 18 16 15 15 16 16 16 15 14 13 12 11 11 10 9 8 8 8 8 9 9 10 9 9 8 8 9 9 10 12 13 14 15 15 16 16 16 17 17 17 17 17
6 6 4 7 5 5 7 5 2 3 2 5 9 6 6 9 10 9 7 6 8 14 20 21 24 29 28 29 30 30 30 30 31 30 30 29 27 27 26 27 26 26 27 28 30 31 31 31 30 30 29 27 25 23 21 20 18 18 18 18 18 18 16 15 14 13 12 11 11 10 9 8 8 8 9 9 9 8 8 8 8 9 10 11 12 12 14 15 16 17 17 17 17 17 17 17 18
4 7 10 14 12 6 5 4 2 4 4 5 8 7 7 9 11 14 12 8 11 14 18 20 23 26 26 28 29 29 30 30 31 31 31 30 29 29 28 28 28 28 29 30 31 31 32 32 31 31 30 28 27 25 23 22 20 20 20 20 20 19 18 17 15 14 12 12 12 11 10 9 8 8 8 8 8 8 8 9 9 10 10 11 11 12 14 15 17 18 18 18 17 17 17 17 17
5 8 13 18 18 11 7 6 6 7 7 7 8 8 11 9 10 16 18 22 25 20 15 15 16 18 21 24 27 29 30 30 30 30 30 30 30 29 29 29 30 30 31 31 31 32 32 33 33 33 31 29 28 27 26 24 22 22 22 21 21 20 19 18 16 15 13 13 13 12 12 10 9 8 9 9 9 9 9 10 10 10 10 10 12 13 14 16 17 18 19 19 18 18 17 17 17
6 7 11 18 20 15 12 10 9 9 10 12 10 8 10 11 9 13 22 31 33 28 23 20 19 18 18 19 23 26 28 29 29 29 29 29 29 28 28 29 30 31 32 32 33 33 33 33 33 34 32 30 29 29 28 25 23 24 23 22 22 22 20 19 17 16 15 14 14 14 13 11 10 9 9 10 10 10 10 10 10 10 10 11 12 14 15 16 18 19 19 19 19 19 18 18 18
8 8 12 15 14 13 13 13 12 13 13 14 12 11 13 17 14 14 27 34 29 27 26 25 24 23 22 23 25 27 28 30 30 30 30 30 30 28 28 29 30 32 33 34 34 34 33 33 33 34 33 31 30 30 29 26 25 26 24 23 23 23 22 20 18 17 16 15 15 15 13 12 11 10 10 11 11 11 11 10 10 10 10 11 12 14 15 17 18 19 20 20 20 20 20 20 20
5 8 12 11 11 13 13 15 16 15 15 13 10 13 18 20 15 16 33 39 31 28 26 26 26 25 26 26 29 31 32 34 34 33 32 32 31 31 31 31 33 34 35 35 35 35 34 33 33 33 33 33 31 31 30 29 28 27 25 24 24 23 23 21 20 19 17 16 16 15 14 13 12 11 11 11 11 11 10 10 9 9 10 11 13 14 16 17 19 20 21 21 21 21 21 22 22
7 10 13 14 17 20 19 19 19 18 16 16 13 11 16 18 10 13 30 31 25 26 28 29 28 28 29 28 29 32 34 35 34 34 33 33 33 34 34 33 35 36 36 36 36 36 35 34 34 33 33 34 33 32 32 31 30 28 26 25 24 24 23 22 21 20 18 17 17 16 15 13 13 12 12 11 11 10 9 9 8 9 10 12 13 15 16 18 20 21 22 23 23 23 23 23 24
11 10 12 15 18 22 23 21 22 17 12 18 17 8 13 13 8 18 33 26 16 19 23 26 28 30 31 31 31 32 34 34 33 34 35 35 35 34 35 34 34 36 38 38 37 37 36 36 35 34 33 34 34 33 33 33 31 29 27 26 25 24 24 23 23 22 20 19 18 17 15 15 14 13 12 11 10 9 9 8 9 10 11 13 14 16 17 19 20 21 22 23 23 24 24 24 25
9 6 8 13 13 16 21 21 22 17 8 13 13 5 11 10 14 30 40 32 22 19 21 23 26 29 31 33 34 34 35 34 34 36 36 36 35 34 34 33 33 35 38 38 38 38 37 36 36 35 34 35 35 34 34 34 32 31 29 27 25 25 25 25 24 23 21 20 19 18 16 16 15 14 13 12 11 9 9 9 9 10 12 14 16 17 18 19 20 21 22 22 23 24 24 24 25
7 6 5 9 9 9 17 20 20 15 7 13 13 2 9 10 20 33 34 32 27 23 25 25 25 28 30 32 34 36 37 36 38 39 38 36 35 35 34 33 33 35 37 38 39 39 37 37 37 36 36 35 35 36 35 34 34 32 30 28 25 25 26 26 25 24 22 21 20 19 17 17 16 15 14 12 11 10 9 9 10 11 13 14 16 18 18 19 20 22 22 22 23 24 24 24 25
4 5 5 5 4 6 10 8 12 10 7 17 13 4 10 7 15 25 23 26 25 23 27 27 27 28 30 32 35 37 38 39 41 41 40 38 37 37 35 33 33 34 36 39 40 39 38 38 37 37 37 37 36 36 36 35 35 33 30 28 25 26 27 27 26 25 23 22 21 19 18 17 17 16 15 13 11 10 9 9 10 12 13 16 18 18 19 20 21 22 23 23 23 23 24 24 25
3 2 5 4 4 7 8 2 14 11 7 16 12 4 10 8 17 23 19 23 24 24 27 26 27 29 30 33 35 38 38 39 41 41 41 40 38 38 37 35 34 35 36 38 40 40 39 38 38 38 38 37 36 37 36 35 35 33 31 28 26 27 28 28 27 26 25 23 22 20 19 18 18 17 15 13 11 10 9 9 10 12 14 17 18 19 19 20 21 21 22 23 23 23 24 24 25
4 5 6 6 5 8 6 3 12 11 6 11 12 5 7 7 14 15 8 19 25 23 24 25 26 27 29 33 35 37 37 38 41 41 41 40 39 39 38 37 35 35 36 38 40 41 40 39 39 39 38 37 36 37 36 36 35 33 31 29 27 28 29 29 28 27 25 24 22 21 20 19 19 18 15 13 11 10 9 10 11 13 15 18 19 19 20 20 21 21 21 21 22 22 23 24 25
4 6 6 7 8 8 6 2 6 9 7 8 12 9 12 10 11 11 8 16 23 21 23 25 26 27 30 33 34 34 34 37 40 41 41 40 39 39 39 38 36 36 37 38 40 40 40 40 39 39 38 37 36 36 36 35 35 33 32 30 29 30 30 29 29 28 26 25 23 21 21 20 20 19 16 13 11 10 10 11 12 14 16 18 19 20 20 20 21 21 20 20 21 22 23 25 26
5 6 5 6 7 8 9 5 3 10 7 7 9 10 17 15 12 17 22 23 20 20 24 27 31 32 34 37 36 34 34 37 40 40 39 39 38 38 39 39 37 37 38 39 40 40 40 39 39 38 38 37 36 36 35 35 35 33 32 31 30 31 31 30 29 28 27 26 25 22 21 22 21 19 16 14 13 11 11 12 14 16 18 19 20 20 20 20 20 20 20 20 20 21 22 25 27
10 10 7 7 6 8 13 10 4 10 7 8 12 12 16 16 13 15 24 29 26 24 25 27 31 32 35 38 36 34 35 38 38 36 36 36 36 36 37 38 37 37 37 39 39 39 40 40 39 38 38 38 36 36 36 36 36 35 34 33 32 32 32 32 30 29 28 27 26 23 23 23 23 20 17 15 14 12 12 13 15 17 18 19 20 20 20 20 20 20 20 20 20 21 22 24 27
12 11 9 7 7 10 14 12 5 10 7 9 14 14 15 17 14 13 20 25 22 20 22 25 28 31 36 37 35 33 35 37 33 31 32 31 31 33 36 37 36 36 37 38 39 39 40 40 39 39 39 38 37 37 37 37 38 37 36 35 34 33 33 33 32 31 30 29 27 25 24 25 23 21 18 16 14 13 13 14 16 17 18 19 20 20 20 20 19 20 19 19 21 22 23 24 26
11 9 8 7 7 11 14 11 5 8 6 8 11 11 14 16 13 12 17 17 16 19 20 24 29 33 38 37 35 35 33 30 27 28 29 25 27 30 34 37 37 37 37 39 39 39 39 39 39 39 39 38 38 38 38 38 39 38 37 35 34 34 34 34 33 32 31 30 28 26 26 26 23 21 19 16 15 14 14 15 16 18 19 20 20 20 19 19 19 19 20 20 21 23 24 24 25
9 7 5 7 9 10 12 9 3 4 3 6 8 10 12 15 13 13 16 15 18 27 29 30 33 33 34 35 35 33 26 23 24 26 27 24 26 29 32 36 37 36 37 38 39 38 38 39 39 39 38 38 39 39 40 39 38 38 36 34 34 34 35 34 33 33 33 31 29 27 27 26 24 22 19 17 16 15 16 16 17 18 20 21 21 20 19 19 19 19 20 22 22 23 24 23 24
7 7 5 8 10 8 8 5 2 4 4 6 8 9 10 13 14 14 20 25 27 32 35 36 37 34 36 39 38 31 23 22 25 25 26 25 27 29 32 35 36 36 37 38 39 38 39 39 38 37 37 38 39 40 40 39 38 37 36 35 35 35 35 35 35 35 34 32 30 28 28 27 25 23 20 19 17 17 17 17 18 19 20 21 21 20 19 19 19 19 20 22 23 25 25 24 24
8 8 8 10 12 11 10 7 2 3 5 6 6 9 9 10 13 13 16 22 23 25 27 30 35 37 38 40 38 33 25 23 26 27 27 26 28 30 31 33 34 36 38 39 39 39 38 37 36 35 36 37 39 40 40 40 39 39 38 38 38 38 37 37 37 36 35 33 31 30 29 28 26 24 22 20 19 18 18 18 19 19 21 22 21 20 19 18 19 19 20 21 23 25 26 26 26
9 7 12 15 15 13 13 9 5 3 4 2 2 7 8 7 11 11 7 8 11 14 16 20 30 36 36 35 37 34 26 23 27 28 27 26 27 29 30 31 33 35 37 37 37 36 36 35 34 34 35 37 38 40 41 41 42 43 42 42 42 41 41 40 39 37 36 34 32 30 29 29 27 25 23 22 20 19 19 19 19 20 21 22 21 20 19 19 19 20 21 22 23 24 27 28 28
9 5 7 11 12 11 10 6 2 1 5 2 4 3 10 7 8 9 6 5 8 9 10 15 25 32 32 33 36 31 23 24 27 27 27 27 27 28 29 30 30 31 33 34 34 35 35 34 33 33 34 36 38 40 42 43 44 44 44 44 44 42 41 40 38 37 35 33 32 31 30 30 28 26 25 23 21 20 19 19 19 20 21 22 21 20 19 19 20 21 22 23 24 25 26 28 29
6 2 1 2 4 6 5 3 4 3 3 4 4 4 9 14 6 8 10 9 8 9 9 12 19 28 32 35 35 28 23 26 27 28 29 28 27 28 27 26 26 26 28 31 33 33 33 33 33 33 34 35 37 39 41 43 44 44 44 44 43 42 41 39 38 37 36 34 33 33 32 31 29 28 26 24 22 21 20 20 20 20 22 21 21 20 20 20 21 22 22 24 25 25 26 28 29
5 1 1 3 1 1 1 1 4 3 4 4 5 7 5 15 6 7 10 10 10 12 13 13 15 24 31 34 35 29 24 26 28 30 30 27 28 27 24 23 23 24 27 29 30 31 32 32 32 33 33 34 35 37 40 43 44 44 43 43 43 42 41 40 38 38 38 36 35 34 33 32 30 29 27 25 23 22 20 20 20 21 22 21 20 20 21 21 22 23 24 25 26 26 26 27 28
4 3 3 5 2 1 2 2 2 2 5 6 6 8 4 15 8 5 7 8 9 11 12 13 15 23 30 32 35 32 26 26 28 29 28 26 26 25 23 23 23 24 26 28 29 31 32 32 32 32 31 32 34 37 40 42 43 43 43 44 44 43 43 42 41 40 40 38 36 34 33 33 32 30 27 25 24 22 21 20 21 21 21 21 20 21 21 22 23 24 25 26 27 27 26 27 28
3 3 2 2 1 1 1 2 2 1 9 7 10 13 8 10 5 6 6 6 9 9 8 9 12 20 28 30 31 30 27 27 27 27 26 24 24 24 25 25 25 26 27 29 31 32 32 33 32 31 31 32 34 37 40 41 42 43 43 44 45 45 45 45 44 43 41 39 37 35 34 34 32 30 28 26 24 22 21 21 21 21 21 21 20 21 22 23 24 25 26 27 27 27 27 27 28
3 4 2 1 3 2 2 1 3 2 10 5 11 16 13 11 5 3 4 6 10 10 8 10 10 15 26 31 30 28 27 28 27 25 25 25 26 27 28 27 27 29 30 32 32 33 34 33 32 32 33 34 35 37 39 40 41 42 43 44 45 46 46 46 46 44 42 40 38 36 35 35 33 31 29 27 25 23 22 22 21 21 21 20 20 21 22 24 25 27 27 28 27 26 26 26 27
3 5 4 1 3 2 1 2 2 4 10 5 10 13 11 14 10 5 7 7 9 9 9 12 12 14 24 30 27 25 26 28 28 27 26 27 29 31 32 31 31 32 32 32 32 34 34 34 33 32 32 33 35 36 37 38 40 41 43 45 46 47 47 47 46 45 43 40 38 37 37 36 35 33 30 27 25 24 23 22 22 22 21 20 20 21 23 25 26 27 28 28 27 25 25 26 27
7 6 6 5 4 3 4 4 3 6 9 7 7 10 6 9 7 10 15 14 13 13 13 16 15 15 23 27 22 20 24 28 28 27 26 27 31 33 34 34 34 34 33 32 33 34 34 34 33 30 31 33 34 36 36 37 38 40 43 45 46 48 48 48 47 45 44 41 39 39 38 37 36 33 30 28 26 25 23 23 22 22 22 20 21 22 23 25 27 28 28 27 26 26 26 27 28
9 6 5 6 5 3 4 5 7 7 6 5 3 6 4 4 2 10 15 15 17 20 21 23 21 19 24 25 17 16 23 26 26 26 25 27 31 34 35 35 35 34 33 32 33 35 35 35 32 29 30 33 34 35 36 37 38 39 42 44 47 48 49 48 48 46 45 43 41 40 39 38 36 33 31 29 27 25 24 23 22 22 21 21 21 23 24 26 27 28 28 27 26 26 27 28 28
6 4 3 6 5 5 5 7 9 5 5 6 4 4 6 6 8 10 10 10 12 15 18 20 20 23 28 24 17 17 22 23 24 24 23 27 32 36 37 36 36 34 33 33 35 36 35 34 31 28 29 32 34 35 36 36 37 39 41 44 46 48 49 49 49 47 46 44 42 41 40 38 36 33 32 30 28 26 24 23 22 22 21 21 23 24 25 26 27 27 27 26 26 26 28 28 27
3 4 5 6 3 5 5 8 7 2 6 9 6 6 7 8 12 12 13 14 13 11 13 13 16 26 30 24 20 22 23 23 23 23 22 25 31 36 37 37 37 36 34 35 36 36 34 32 30 29 30 34 36 36 36 37 38 39 41 44 46 48 49 50 50 49 47 45 43 42 40 38 36 34 32 30 28 26 24 23 23 22 22 22 24 25 26 26 27 27 26 26 26 26 27 27 26
5 3 5 2 2 1 3 2 4 3 7 9 8 10 10 10 10 5 4 10 12 12 13 11 16 25 24 21 24 27 26 24 23 23 22 23 29 34 37 37 38 37 36 36 36 35 34 32 31 31 32 34 36 36 37 38 39 40 41 44 45 47 49 50 50 49 48 47 45 43 41 40 37 35 33 31 29 27 25 24 23 23 22 23 25 25 26 26 26 26 25 25 25 25 26 25 25
4 2 1 3 1 1 2 2 3 5 6 7 9 11 11 12 11 8 5 7 10 11 12 12 15 17 14 18 25 25 23 24 24 24 24 24 26 32 37 39 40 38 37 37 36 36 36 35 36 36 34 34 35 37 39 39 40 40 41 44 45 46 48 49 50 50 49 48 46 44 43 41 38 36 34 32 30 28 26 25 24 22 23 24 25 25 26 26 25 25 25 25 25 24 25 26 25
2 4 4 1 2 3 4 3 3 5 6 7 10 10 12 12 8 7 10 8 10 9 8 9 11 12 14 19 23 21 22 25 25 25 26 23 22 27 35 41 41 39 38 37 37 38 39 39 39 39 38 38 39 41 41 41 41 41 43 45 46 47 48 49 50 50 50 49 47 45 43 41 39 37 35 32 30 28 26 25 23 23 23 24 25 25 25 25 25 25 25 24 24 24 25 26 26
3 1 2 2 2 1 1 3 3 5 6 6 7 9 14 10 2 1 5 4 9 10 8 9 9 12 16 17 18 19 21 25 26 25 24 21 22 27 33 38 40 39 38 38 38 39 41 43 42 41 41 41 40 41 42 42 42 43 44 45 47 48 48 49 50 50 50 49 47 46 44 42 39 37 35 33 30 28 26 25 23 23 24 25 25 25 25 25 24 24 24 24 23 24 25 26 27
7 7 8 8 7 4 3 6 6 5 4 6 7 8 15 10 4 5 5 3 3 5 5 5 6 10 15 16 17 19 20 22 24 22 20 21 27 31 31 31 34 38 40 41 40 41 43 44 45 44 44 42 41 41 41 42 44 44 44 46 48 49 49 50 50 50 50 49 48 46 44 42 40 37 35 32 30 28 26 25 24 24 25 24 24 24 24 24 24 23 23 23 23 24 25 27 27
Wind_Direction
187 194 178 162 145 131 117 47 298 237 212 262 256 207 106 76 107 126 132 94 68 140 87 67 58 40 48 33 345 35 55 42 97 143 176 290 178 176 172 170 170 174 181 194 207 199 193 198 202 196 175 189 226 290 301 303 306 303 300 295 285 280 281 284 284 287 290 290 293 298 300 302 304 299 298 300 304 309 314 318 313 311 311 313 315 315 313 308 306 304 306 310 309 312 316 320 320
174 154 115 113 140 120 323 171 241 265 212 247 261 159 115 100 124 149 168 136 80 88 93 94 80 33 347 326 335 354 42 46 86 125 131 131 167 176 176 177 175 180 181 190 209 193 177 199 197 185 151 143 29 340 316 317 318 324 322 321 319 318 311 304 303 301 298 298 299 300 300 302 302 299 297 298 300 303 306 308 305 304 304 306 309 309 311 310 308 304 301 300 303 306 309 312 314
172 146 109 63 152 246 309 206 250 289 265 268 336 74 124 121 125 105 79 93 91 94 99 111 118 360 302 293 312 302 67 72 57 93 119 132 162 177 181 185 185 187 187 197 210 194 181 207 197 179 166 143 44 326 290 311 328 345 341 347 350 349 342 329 322 315 308 306 302 299 297 296 296 295 295 294 294 296 299 301 301 300 298 299 300 300 301 303 305 304 301 299 300 302 304 307 309
156 149 121 79 292 265 275 206 242 277 281 289 61 128 144 128 115 87 76 89 98 107 102 116 125 338 258 255 313 324 124 110 57 348 137 151 168 180 184 191 192 191 195 207 212 202 203 213 197 183 167 93 72 73 66 56 47 46 37 31 27 23 19 6 357 346 337 329 319 311 302 297 294 293 292 291 291 291 292 293 295 297 297 296 294 294 293 295 296 297 298 297 298 299 301 304 306
127 134 129 144 269 277 289 255 257 244 263 296 75 147 130 118 113 94 93 96 98 111 110 138 125 51 224 236 285 360 128 128 193 266 230 199 194 185 189 194 195 194 199 212 212 206 213 209 199 212 167 61 66 57 50 46 43 42 39 34 28 24 18 13 6 357 350 344 338 332 323 315 307 300 297 295 293 291 291 291 291 293 296 298 297 295 293 292 290 291 292 293 294 295 296 296 298
106 97 124 159 278 300 310 269 269 250 260 313 49 120 135 106 109 109 107 96 93 117 138 161 162 67 211 222 238 223 159 159 216 250 256 239 223 199 198 197 199 199 204 215 211 205 214 209 210 236 81 57 50 49 46 41 40 37 35 31 25 18 9 4 358 352 346 342 338 335 330 324 318 311 305 300 298 295 294 293 292 293 294 296 298 299 299 298 295 292 289 288 290 289 291 291 292
109 92 126 263 276 273 272 258 268 269 288 337 40 90 101 102 112 121 123 112 102 142 170 175 189 217 213 189 217 236 226 232 248 261 277 274 235 215 208 203 204 203 209 217 212 208 212 211 216 227 70 67 59 64 65 55 44 38 32 25 17 7 360 353 349 348 343 340 338 334 331 326 320 314 309 304 302 300 298 297 295 294 293 292 293 296 298 300 300 299 296 292 290 287 286 286 286
127 101 222 256 268 188 235 255 258 265 274 16 69 48 58 113 127 136 152 165 153 179 184 183 175 194 235 193 222 245 242 248 253 259 263 267 247 227 216 210 209 208 215 217 215 216 215 215 213 205 193 191 186 164 120 90 58 36 21 13 6 358 355 352 349 349 348 346 340 337 333 329 324 317 314 310 308 307 305 303 301 299 296 294 292 292 293 294 296 296 296 296 295 294 292 290 288
128 289 274 215 270 229 240 243 248 257 200 137 102 84 77 127 147 157 169 161 151 176 183 183 175 168 190 193 226 242 240 246 249 256 256 256 252 236 220 214 214 214 219 220 219 222 222 221 212 210 206 205 200 189 175 158 89 21 4 360 355 359 359 357 358 356 356 352 347 344 340 336 331 326 322 318 315 312 309 306 304 302 300 299 297 295 294 294 294 294 294 294 295 294 295 294 293
219 248 267 289 257 261 257 244 244 254 120 97 97 138 146 144 171 179 181 167 158 173 177 181 187 198 205 201 213 230 241 246 246 251 252 250 247 237 223 219 219 218 223 223 221 222 225 224 217 217 213 208 203 201 199 193 201 338 354 356 353 360 4 5 6 5 5 1 357 351 347 345 342 340 335 330 326 322 318 313 309 309 309 309 309 308 306 305 305 305 305 304 304 301 300 298 297
244 221 235 299 256 255 256 275 292 289 106 100 103 146 160 165 190 196 203 192 164 158 160 167 194 218 230 253 232 235 244 247 249 251 250 244 239 233 227 224 221 220 225 224 221 222 222 221 220 219 215 211 208 211 215 219 248 318 347 352 354 356 5 14 22 22 21 16 10 4 358 354 351 349 346 344 343 342 344 345 345 346 345 343 341 339 336 333 331 329 328 327 325 321 318 315 312
247 219 196 238 251 261 273 311 320 343 114 170 151 149 161 174 197 210 213 211 170 151 165 176 189 212 218 244 234 241 246 247 252 256 255 245 234 230 228 225 223 224 227 226 223 222 221 219 220 220 218 215 215 223 233 250 288 320 339 343 344 347 354 22 59 45 33 26 17 12 9 4 2 360 1 1 2 5 8 11 14 14 12 10 7 5 2 358 355 351 348 345 341 338 335 332 330
246 278 225 241 260 271 292 305 311 326 306 229 134 148 163 178 199 217 219 227 195 170 189 200 196 195 219 235 222 237 246 249 254 259 258 244 234 230 229 226 226 229 227 228 228 224 223 223 223 223 220 219 222 231 244 261 287 312 326 331 331 329 327 337 6 15 12 9 5 2 2 2 4 5 9 13 14 17 17 18 19 17 15 12 10 7 5 3 360 357 355 352 349 346 343 341 338
241 289 300 273 284 281 290 282 285 306 294 41 93 141 162 183 204 218 229 240 219 207 209 207 198 189 242 242 226 239 244 249 255 262 254 239 236 231 230 228 229 230 228 230 229 226 226 225 225 224 222 221 224 230 241 254 271 292 307 312 315 313 312 322 334 345 347 346 344 344 345 347 352 356 1 4 9 12 14 17 16 15 12 9 7 4 2 360 358 356 354 352 351 349 346 345 341
251 296 307 259 286 283 271 256 261 279 292 72 104 145 167 198 206 216 232 239 233 212 172 183 193 182 233 230 221 236 241 245 252 259 247 239 238 232 233 232 231 231 230 231 230 228 228 226 225 224 222 220 222 226 233 241 252 265 277 283 289 291 286 296 310 322 327 328 328 328 330 332 337 341 347 351 355 359 2 6 6 5 4 2 1 358 356 354 353 351 349 348 347 347 345 346 345
258 291 302 254 269 272 253 230 252 266 251 117 141 156 177 213 205 213 228 228 232 209 194 187 200 207 222 231 226 227 234 238 243 247 239 239 238 234 236 235 233 231 231 232 232 230 230 228 227 225 222 221 221 223 229 234 237 245 251 255 260 260 257 266 283 299 307 310 311 310 311 311 317 324 330 337 340 345 349 353 356 356 356 356 355 352 351 348 347 344 343 343 342 342 342 343 342
254 261 249 259 257 261 249 206 172 184 187 129 161 173 184 214 205 222 232 229 237 231 227 221 219 227 234 241 242 238 239 243 245 244 240 239 238 236 237 236 233 232 232 233 233 231 232 232 231 229 225 224 222 222 226 230 232 237 241 243 245 243 242 252 266 280 287 290 291 290 292 293 301 309 316 323 329 335 340 346 349 351 351 351 349 347 345 343 341 339 337 336 335 335 334 332 329
217 205 226 241 245 251 266 303 352 92 123 136 177 188 209 221 193 219 237 234 236 242 244 239 237 240 241 243 245 245 245 247 249 248 246 241 239 240 239 239 236 235 234 234 234 233 234 234 233 232 228 226 224 223 227 229 231 235 238 239 238 235 236 245 258 270 278 281 280 278 279 282 291 299 306 313 319 328 333 339 342 345 347 345 345 343 341 338 334 332 330 328 327 326 325 324 324
213 236 250 243 255 260 258 336 348 15 330 313 189 191 216 239 204 203 226 234 225 234 245 238 237 238 238 241 240 243 245 246 249 249 249 247 244 245 243 241 239 239 239 237 237 236 235 235 234 234 231 227 225 225 228 230 232 234 235 236 232 230 233 242 254 265 274 278 275 270 269 273 282 291 298 303 309 316 320 327 334 338 340 340 339 338 335 332 329 326 322 321 320 320 321 322 323
222 234 265 253 272 316 304 316 308 299 311 303 268 216 209 235 225 186 206 249 228 227 236 227 229 230 232 237 238 240 243 243 247 248 248 249 249 247 246 245 244 245 246 243 240 239 238 236 235 235 232 228 226 226 228 231 232 233 233 232 230 229 233 242 253 263 271 274 270 263 260 266 275 284 292 297 302 307 312 319 326 329 330 332 331 331 330 327 325 322 320 319 318 318 319 320 320
220 210 230 266 287 322 309 324 301 280 286 273 283 268 220 235 236 206 204 253 243 234 238 230 230 234 232 233 238 241 243 242 244 246 247 249 249 247 247 248 249 249 249 246 242 241 241 239 236 236 234 229 226 226 228 230 232 232 232 231 230 230 235 243 252 261 266 268 262 255 253 259 269 279 287 292 296 298 304 308 313 317 319 323 325 326 325 324 324 323 323 323 322 322 322 321 321
237 238 245 266 271 275 295 316 245 250 253 258 274 267 250 244 236 225 211 226 241 235 240 241 239 241 238 234 238 241 242 244 244 245 246 248 249 248 246 245 246 245 245 246 245 244 243 241 238 237 237 231 228 227 227 229 231 232 231 231 232 233 238 244 251 257 261 260 254 249 249 255 263 271 280 282 284 285 289 295 302 309 315 320 322 324 325 326 326 325 325 324 324 325 324 324 323
227 254 248 261 269 271 277 277 249 246 249 243 250 259 257 248 239 235 226 233 245 245 244 256 257 243 238 238 236 237 239 242 244 247 248 249 251 250 247 244 244 245 245 247 246 245 243 242 240 239 238 233 229 228 227 228 230 231 230 231 233 236 241 245 250 253 254 252 248 245 246 253 260 265 271 272 273 276 282 289 298 306 313 319 322 324 328 331 330 328 326 324 325 325 325 325 324
224 262 257 269 277 274 266 269 257 245 245 241 246 268 258 238 240 247 242 244 250 254 252 256 265 254 242 240 237 238 243 245 249 253 254 254 255 256 252 247 245 245 245 245 246 246 244 242 241 239 237 234 231 229 228 228 230 232 231 231 234 238 242 246 249 250 250 247 243 242 246 252 257 262 265 267 270 273 280 288 297 306 313 319 323 327 331 333 331 328 325 325 325 326 326 326 327
227 251 258 266 274 271 264 265 257 248 246 245 248 259 250 242 249 257 255 256 255 255 255 251 255 257 250 246 245 246 247 249 252 253 254 255 254 252 249 244 240 240 242 243 244 246 246 244 242 241 237 234 232 230 229 228 230 233 232 233 236 239 243 245 248 248 247 243 240 241 245 252 256 260 261 264 268 273 280 289 297 306 312 318 323 328 331 331 330 328 326 325 325 327 328 329 329
232 265 276 281 284 282 273 259 249 243 243 239 239 249 250 250 257 262 257 258 260 256 253 248 245 249 249 247 248 249 250 251 252 253 254 254 250 246 244 241 236 237 241 241 243 245 246 245 244 242 237 234 232 231 230 229 231 233 233 234 237 240 243 245 246 247 246 242 239 241 245 251 255 256 257 260 265 272 279 286 295 304 312 320 324 328 330 329 329 328 327 326 327 330 331 331 331
290 303 301 294 287 283 274 263 252 242 238 229 222 242 253 253 251 256 257 259 264 256 249 246 241 242 246 246 245 248 251 252 253 252 251 248 245 244 243 240 237 237 237 238 241 243 244 244 245 243 238 234 232 231 230 231 233 233 234 236 238 241 243 244 244 246 245 241 239 240 245 250 254 255 254 257 263 271 279 286 297 306 315 322 325 326 328 329 329 329 329 330 331 331 333 334 335
291 311 307 287 280 276 263 257 251 238 237 226 217 247 261 253 233 243 256 259 257 251 245 243 239 238 242 244 245 244 247 251 252 248 245 245 245 244 243 241 239 235 233 237 240 241 242 244 244 243 239 234 231 230 230 232 234 234 236 237 239 241 242 242 243 244 243 240 238 240 246 250 253 253 254 258 264 272 280 288 300 309 319 323 323 324 326 329 330 331 331 331 331 331 333 335 335
295 305 303 284 279 273 257 249 240 224 228 215 199 262 262 236 228 242 257 259 250 247 245 241 238 238 239 242 245 244 246 248 247 245 246 247 247 246 244 245 243 236 234 237 238 240 242 243 243 242 239 235 232 231 231 233 234 235 237 238 239 241 241 241 242 242 241 238 238 239 245 249 251 252 253 257 264 271 278 288 300 309 318 320 320 322 326 329 330 331 331 331 331 331 333 334 335
280 267 259 280 290 272 256 248 227 208 200 182 163 248 254 230 232 241 258 260 246 239 241 239 237 237 237 240 244 246 245 243 243 247 249 248 247 246 245 245 243 238 235 234 236 239 241 241 241 240 238 237 233 232 232 233 235 236 237 238 240 241 240 241 240 240 239 237 237 239 243 247 249 250 251 254 259 266 275 286 298 308 317 318 318 322 326 328 329 330 331 332 332 332 333 335 336
258 277 253 256 279 271 271 247 190 181 180 171 158 254 254 255 248 243 253 250 235 227 234 237 233 234 238 242 246 248 246 245 247 250 250 248 247 245 244 242 241 238 234 234 236 238 239 240 240 239 238 237 234 233 233 233 235 237 238 239 240 239 238 239 239 238 237 235 236 239 242 245 247 248 248 250 254 262 273 286 299 310 316 316 317 322 326 327 328 330 331 332 332 332 333 336 336
214 256 264 230 228 261 281 199 169 172 175 175 164 252 252 256 261 257 251 237 224 219 231 235 232 234 238 244 250 250 249 250 250 249 249 248 246 243 242 241 239 238 237 236 236 236 237 238 238 238 238 237 234 233 233 233 235 236 237 240 239 238 237 237 237 237 236 236 237 240 243 245 245 247 246 247 252 260 273 288 301 310 314 313 316 322 325 325 327 330 331 331 331 332 334 336 336
208 194 249 242 236 265 271 204 187 176 135 185 193 232 257 238 247 255 233 217 214 216 231 236 237 240 242 248 251 250 249 250 250 247 245 245 245 244 242 241 239 240 239 235 235 234 236 236 236 237 238 238 234 232 232 233 235 235 236 239 237 236 235 236 236 236 237 238 239 241 243 245 245 246 244 245 250 258 273 288 300 309 311 312 316 320 323 323 324 327 330 330 331 334 335 335 335
236 208 237 242 240 259 259 274 223 192 140 196 212 230 253 250 247 257 240 215 208 213 233 242 248 253 255 257 256 253 250 247 248 247 243 242 245 245 243 243 241 239 237 234 235 235 235 236 235 235 237 236 232 231 232 233 234 234 235 237 236 235 235 235 236 237 238 239 241 243 244 244 245 244 242 243 248 258 273 287 298 305 308 311 315 319 320 320 321 324 328 331 333 336 336 335 334
249 241 254 261 249 253 254 276 218 192 184 216 218 231 248 253 256 260 260 251 233 227 237 248 256 259 261 261 259 257 255 251 251 250 245 240 243 245 243 242 239 236 234 231 231 232 233 234 234 234 234 233 231 231 231 232 233 233 234 236 234 233 234 235 236 237 238 239 242 244 243 244 244 242 240 241 248 259 274 287 296 302 306 310 314 317 317 317 320 323 328 331 332 334 335 335 335
259 266 269 271 271 267 262 273 202 180 197 224 222 233 248 254 251 248 254 256 254 248 245 248 254 258 261 261 259 257 256 256 255 253 247 240 241 244 242 241 238 234 231 229 227 228 230 231 231 232 232 232 231 230 230 230 231 231 233 234 233 233 233 234 236 237 238 239 243 244 242 244 243 240 238 242 250 261 275 287 295 301 305 309 311 313 314 316 320 324 327 328 328 330 332 335 336
255 265 268 266 269 270 270 279 230 182 193 225 227 236 248 255 255 249 251 254 257 256 253 251 253 258 261 263 262 260 259 259 256 252 246 239 239 240 239 238 235 229 226 226 225 225 229 231 232 232 232 233 233 232 232 231 232 232 233 234 234 233 233 234 235 236 238 240 242 243 242 243 241 238 238 242 252 263 275 286 294 299 304 306 308 310 312 317 321 323 324 325 326 327 330 336 337
251 257 267 271 264 266 273 279 233 181 198 238 241 248 254 259 261 257 254 252 252 252 254 256 256 260 263 266 265 263 263 257 247 242 238 232 233 234 233 233 231 227 224 224 225 226 229 232 233 234 233 234 236 236 236 235 236 236 237 238 237 235 234 236 237 238 239 241 243 242 241 241 239 238 239 244 253 264 275 284 292 298 302 303 304 307 311 317 321 321 321 323 325 326 330 336 337
260 264 274 274 267 274 277 274 205 156 200 250 257 261 261 264 263 260 255 248 248 249 250 254 257 260 263 266 265 264 264 247 232 229 226 225 230 230 229 229 229 227 225 225 226 227 229 231 232 234 235 237 238 238 237 237 238 238 239 239 237 235 235 235 236 237 239 240 241 241 240 240 238 238 240 246 254 263 273 283 290 296 299 300 301 305 310 316 319 320 320 321 323 323 327 332 335
248 249 262 263 260 270 274 266 168 162 205 244 267 270 265 268 265 259 255 250 251 251 251 254 256 258 260 263 264 264 257 234 221 218 219 223 229 229 226 226 226 225 224 224 225 226 228 230 233 234 236 238 239 239 238 237 237 236 235 234 233 233 233 234 233 235 238 240 240 240 241 239 237 238 241 246 254 263 271 280 287 293 296 296 299 303 309 315 317 317 316 317 319 320 322 327 330
239 219 229 251 255 252 255 267 268 212 229 243 282 286 267 250 250 254 251 247 248 248 250 253 255 257 259 261 262 259 249 232 221 216 218 225 230 229 226 224 224 223 223 224 225 227 229 230 233 235 237 238 238 238 237 235 233 230 228 226 226 227 228 230 232 234 237 239 239 240 240 239 237 238 242 247 253 261 269 277 285 291 293 294 298 303 308 313 313 312 312 313 316 317 317 321 326
260 211 216 240 254 258 261 287 336 333 278 256 31 309 276 209 217 247 248 228 236 237 237 244 250 255 258 260 260 256 245 234 230 226 224 229 231 227 223 221 222 223 224 225 226 227 229 230 231 234 235 236 236 236 236 234 232 231 230 228 227 227 228 231 235 238 239 239 240 239 238 238 237 239 242 247 253 260 268 276 283 289 290 292 296 302 306 309 308 307 308 309 312 314 315 317 322
271 224 218 241 255 264 265 286 329 255 263 252 92 347 288 261 217 240 248 211 220 226 224 234 242 250 255 258 260 256 241 231 228 227 227 228 229 224 221 220 220 222 222 222 224 225 226 228 230 232 234 235 235 235 235 235 234 233 234 234 235 236 236 237 239 240 240 240 240 239 239 238 237 239 242 246 252 259 267 274 281 286 288 290 295 300 304 304 304 303 304 306 309 312 314 315 318
262 229 215 234 250 261 255 258 237 234 293 276 172 140 278 282 246 206 221 217 227 233 227 233 238 244 251 257 259 253 240 235 228 222 223 225 228 227 224 220 218 218 218 218 220 221 223 225 227 230 232 234 234 235 236 237 237 236 235 236 237 239 240 240 240 239 238 237 238 239 239 238 237 238 242 245 251 258 265 272 279 283 285 289 293 297 300 300 300 300 301 304 307 310 313 314 316
244 193 99 104 126 280 108 213 245 284 334 280 197 144 250 282 271 175 199 207 225 235 229 232 236 240 246 251 254 251 245 243 236 228 226 227 232 231 224 218 215 214 213 215 216 217 219 221 224 227 230 233 234 236 237 238 239 239 238 237 237 237 238 238 237 237 237 237 238 240 239 237 236 238 241 245 250 256 263 270 276 279 282 287 291 295 296 297 297 297 299 302 305 309 313 315 316
216 148 76 81 86 33 90 227 262 347 291 247 191 151 216 278 278 154 180 201 217 230 229 230 231 237 243 245 248 249 248 246 237 230 231 234 236 230 218 213 213 212 211 212 214 215 216 218 220 224 227 230 233 236 238 238 238 239 239 238 238 236 235 234 233 234 236 237 238 238 238 236 236 237 240 244 249 255 261 267 272 276 280 284 288 291 293 293 294 295 298 301 306 311 315 316 315
149 126 72 54 312 18 90 239 103 354 270 241 190 180 193 271 286 137 173 199 200 211 220 230 232 237 244 246 246 244 242 242 236 226 226 232 233 224 215 212 210 209 210 211 212 212 214 215 217 221 224 228 232 235 237 238 238 239 239 239 238 236 235 234 234 234 235 236 236 237 236 236 236 237 239 243 248 254 259 264 269 273 277 281 285 288 290 291 292 294 299 303 308 314 316 316 315
120 117 120 15 309 9 28 300 101 231 267 224 177 186 192 233 254 144 209 205 193 203 202 215 226 234 243 247 248 242 232 234 234 224 220 222 220 215 212 211 209 208 209 209 210 210 211 213 215 219 222 226 231 234 237 238 239 239 239 239 238 237 236 237 237 237 237 238 237 236 235 235 236 237 240 244 248 253 257 262 267 270 274 277 281 286 288 289 292 296 301 305 309 314 315 314 314
146 132 135 141 281 303 317 247 146 226 255 224 178 183 200 237 246 232 248 228 201 208 197 204 216 224 238 246 246 238 224 223 228 225 222 218 211 207 207 208 208 208 207 207 207 208 210 211 213 218 222 226 231 234 236 237 238 239 239 239 238 237 237 238 239 239 240 239 239 237 236 235 236 238 241 245 249 253 257 261 265 268 272 276 281 285 287 289 293 297 301 305 309 313 314 313 313
179 160 149 168 207 245 247 236 242 244 254 258 198 179 212 265 250 212 230 237 226 226 215 217 226 227 241 250 247 233 220 219 223 224 226 222 211 206 207 208 208 207 206 206 207 208 209 211 212 217 223 227 231 233 235 236 237 239 239 239 239 238 238 238 239 239 240 240 239 239 238 238 238 239 242 245 249 252 255 259 263 267 271 276 280 283 285 287 291 295 300 304 309 313 313 313 313
196 176 160 194 190 214 241 228 246 259 275 278 188 166 216 274 232 193 212 229 232 233 226 222 229 236 248 254 246 228 220 218 221 222 227 227 217 212 213 213 212 210 207 207 208 208 210 211 211 217 224 227 230 232 233 235 236 237 238 239 239 239 239 239 239 239 239 239 239 239 238 238 238 240 242 244 247 250 254 257 262 266 271 275 279 280 282 286 290 295 300 305 310 312 312 311 311
217 149 152 233 202 190 247 253 249 277 316 275 210 200 239 268 278 241 226 238 236 232 225 219 221 232 244 247 233 227 224 219 222 225 228 228 220 217 219 219 218 215 210 210 211 210 210 210 212 218 225 228 230 231 232 233 235 236 237 239 239 239 239 238 238 238 238 238 239 238 238 237 237 239 241 244 246 249 252 256 260 265 269 273 276 278 281 286 291 296 300 306 310 310 309 309 308
186 143 191 223 175 165 222 265 274 296 285 272 257 256 274 301 289 252 225 238 243 234 227 219 214 226 237 238 229 233 231 225 230 233 234 233 226 224 224 224 223 220 215 215 214 213 211 212 214 219 225 228 229 230 232 232 233 236 237 238 239 239 239 238 238 237 237 237 237 237 236 236 236 238 240 242 244 247 250 254 258 262 267 271 274 277 282 287 292 297 302 306 308 307 305 305 305
129 178 213 187 35 96 173 263 302 269 257 272 276 273 284 291 281 266 194 225 237 231 224 215 213 222 231 232 232 238 237 233 237 240 239 237 233 231 231 230 228 224 222 221 219 217 215 215 219 223 225 228 229 229 230 231 233 235 237 238 239 239 239 239 238 237 236 236 236 235 234 234 235 237 239 241 242 245 248 251 256 261 266 270 273 277 283 287 293 298 303 305 304 302 301 302 303
137 220 247 107 95 231 162 179 234 246 251 269 280 283 278 260 261 297 298 224 216 220 218 214 219 224 229 233 236 239 237 237 237 238 240 239 238 239 239 237 233 228 227 227 225 222 219 219 222 225 228 231 231 229 229 231 233 235 237 238 239 239 239 238 237 236 236 235 235 235 234 234 234 236 238 239 241 243 246 250 254 260 265 269 273 278 283 288 293 297 300 300 299 299 299 301 303
48 7 350 84 160 175 176 191 200 227 244 265 281 286 276 259 249 277 273 224 197 207 215 216 223 232 235 238 241 238 232 236 238 240 244 245 249 253 248 242 238 233 231 230 228 226 223 223 224 226 228 230 230 230 230 232 233 234 237 238 238 239 239 238 237 236 235 235 234 234 233 233 234 235 236 237 239 242 244 249 254 259 264 267 272 278 283 288 293 295 296 296 296 298 299 302 305
171 209 255 221 201 147 218 249 217 214 229 249 261 266 271 269 166 218 285 212 193 200 204 217 228 240 244 247 253 247 237 238 240 242 247 253 264 267 256 247 242 237 236 234 231 230 228 227 227 228 229 229 230 231 232 233 234 234 236 238 238 238 238 237 236 235 235 234 233 232 232 232 233 234 235 236 238 241 245 250 255 259 263 267 272 279 284 288 291 293 293 294 296 298 300 303 304
183 197 209 207 203 189 244 249 227 216 223 233 240 253 263 262 93 48 1 55 189 206 195 217 232 241 250 256 261 257 250 249 249 248 256 269 275 271 260 251 245 240 239 238 235 234 233 232 231 231 231 231 232 233 234 235 235 235 237 238 237 237 237 236 236 235 234 233 232 231 230 231 232 232 234 235 237 241 245 250 255 259 263 268 274 279 284 287 289 290 292 293 296 298 301 303 303